timestamp string | voltage_V float64 | current_A float64 | power_factor float64 | active_power_kW float64 | apparent_power_kVA float64 | reactive_power_kVAR float64 | hour int64 | minute int64 | dayofweek int64 | is_weekend int64 | voltage_roll_mean_10 float64 | current_roll_std_10 float64 | power_factor_roll_min_10 float64 | lag1_active_power float64 | lag2_active_power float64 | delta_active_power float64 | volt_amp_mult float64 | real_over_apparent float64 | power_ratio float64 | pca1 float64 | pca2 float64 | pca3 float64 |
|---|---|---|---|---|---|---|---|---|---|---|---|---|---|---|---|---|---|---|---|---|---|---|
2025-01-02 01:30:00 | 233.141405 | 5.459226 | 0.913862 | 1.163137 | 1.272772 | 0.516778 | 1 | 30 | 3 | 0 | 230.156079 | 0.771886 | 0.860346 | 0.863448 | 0.69261 | 0.299689 | 1,272.771635 | 0.913854 | 0.406023 | 0.970819 | -1.578956 | 2.164765 |
2025-01-02 01:45:00 | 232.818332 | 5.290166 | 0.918758 | 1.131586 | 1.231648 | 0.486281 | 1 | 45 | 3 | 0 | 230.698535 | 0.868842 | 0.86683 | 1.163137 | 0.863448 | -0.031551 | 1,231.647524 | 0.91875 | 0.394818 | 1.150777 | -1.359577 | 0.092283 |
2025-01-02 02:00:00 | 234.677429 | 4.79768 | 0.92336 | 1.039617 | 1.125907 | 0.432276 | 2 | 0 | 3 | 0 | 231.375226 | 0.871092 | 0.873241 | 1.131586 | 1.163137 | -0.091969 | 1,125.907099 | 0.923351 | 0.383933 | 1.185142 | -1.628203 | -0.438423 |
2025-01-02 02:15:00 | 236.363804 | 5.007374 | 0.927647 | 1.097928 | 1.183562 | 0.44201 | 2 | 15 | 3 | 0 | 232.369712 | 0.897999 | 0.879552 | 1.039617 | 1.131586 | 0.058311 | 1,183.562067 | 0.927639 | 0.373454 | 1.468795 | -1.856564 | 0.598955 |
2025-01-02 02:30:00 | 239.859986 | 5.511965 | 0.931602 | 1.231671 | 1.3221 | 0.480555 | 2 | 30 | 3 | 0 | 233.296487 | 0.852014 | 0.885737 | 1.097928 | 1.039617 | 0.133743 | 1,322.099786 | 0.931595 | 0.363476 | 2.047879 | -1.832484 | 1.042264 |
2025-01-02 02:45:00 | 236.942614 | 5.911608 | 0.935208 | 1.309957 | 1.400712 | 0.49599 | 2 | 45 | 3 | 0 | 233.873134 | 0.953363 | 0.891769 | 1.231671 | 1.097928 | 0.078286 | 1,400.711863 | 0.935201 | 0.354096 | 2.329163 | -1.613981 | 0.891772 |
2025-01-02 03:00:00 | 237.586169 | 6.470408 | 0.938449 | 1.442658 | 1.53728 | 0.531004 | 3 | 0 | 3 | 0 | 234.500202 | 0.910939 | 0.897622 | 1.309957 | 1.231671 | 0.132701 | 1,537.279514 | 0.938443 | 0.345416 | 2.909386 | -1.415826 | 1.187936 |
2025-01-02 03:15:00 | 237.369506 | 5.802966 | 0.941311 | 1.296606 | 1.377447 | 0.464944 | 3 | 15 | 3 | 0 | 235.08898 | 0.915823 | 0.903271 | 1.442658 | 1.309957 | -0.146052 | 1,377.447137 | 0.941304 | 0.337538 | 2.637616 | -1.513581 | -0.751675 |
2025-01-02 03:30:00 | 234.095991 | 5.407239 | 0.943782 | 1.194652 | 1.265813 | 0.418438 | 3 | 30 | 3 | 0 | 235.522834 | 0.652087 | 0.908692 | 1.296606 | 1.442658 | -0.101954 | 1,265.813045 | 0.943775 | 0.330566 | 2.302824 | -1.723406 | -1.038751 |
2025-01-02 03:45:00 | 238.261668 | 6.46847 | 0.945852 | 1.457736 | 1.541189 | 0.500269 | 3 | 45 | 3 | 0 | 236.11169 | 0.558189 | 0.913862 | 1.194652 | 1.296606 | 0.263084 | 1,541.188534 | 0.945845 | 0.324597 | 3.144643 | -1.734831 | 1.297358 |
2025-01-02 04:00:00 | 238.780714 | 6.332173 | 0.947511 | 1.432637 | 1.512001 | 0.483424 | 4 | 0 | 3 | 0 | 236.675621 | 0.598335 | 0.918758 | 1.457736 | 1.194652 | -0.025099 | 1,512.00071 | 0.947504 | 0.319722 | 3.184271 | -1.557205 | -0.546334 |
2025-01-02 04:15:00 | 243.895212 | 6.074789 | 0.948752 | 1.405682 | 1.481612 | 0.468221 | 4 | 15 | 3 | 0 | 237.783309 | 0.590007 | 0.92336 | 1.432637 | 1.457736 | -0.026954 | 1,481.612022 | 0.948746 | 0.316019 | 3.498196 | -1.712683 | -0.675204 |
2025-01-02 04:30:00 | 238.854073 | 7.030772 | 0.949571 | 1.594641 | 1.679328 | 0.526559 | 4 | 30 | 3 | 0 | 238.200974 | 0.600058 | 0.927647 | 1.405682 | 1.432637 | 0.188959 | 1,679.328418 | 0.949565 | 0.313551 | 3.87481 | -1.439108 | 0.880377 |
2025-01-02 04:45:00 | 240.072396 | 6.924152 | 0.949963 | 1.579121 | 1.662298 | 0.51924 | 4 | 45 | 3 | 0 | 238.571833 | 0.551277 | 0.931602 | 1.594641 | 1.405682 | -0.01552 | 1,662.297848 | 0.949957 | 0.312361 | 3.959106 | -1.267663 | -0.581763 |
2025-01-02 05:00:00 | 239.589835 | 7.324042 | 0.949927 | 1.6669 | 1.754766 | 0.548315 | 5 | 0 | 3 | 0 | 238.544818 | 0.598201 | 0.935208 | 1.579121 | 1.594641 | 0.087778 | 1,754.765942 | 0.949922 | 0.31247 | 4.304976 | -1.127192 | 0.205201 |
2025-01-02 05:15:00 | 237.470497 | 6.854344 | 0.949463 | 1.545446 | 1.627705 | 0.510901 | 5 | 15 | 3 | 0 | 238.597606 | 0.591364 | 0.938449 | 1.6669 | 1.579121 | -0.121454 | 1,627.704529 | 0.949457 | 0.313876 | 3.923527 | -1.100329 | -1.232431 |
2025-01-02 05:30:00 | 242.200094 | 7.665847 | 0.948574 | 1.761187 | 1.856669 | 0.587741 | 5 | 30 | 3 | 0 | 239.058999 | 0.702147 | 0.941311 | 1.545446 | 1.6669 | 0.215741 | 1,856.668783 | 0.948569 | 0.316555 | 4.733178 | -1.091043 | 1.267486 |
2025-01-02 05:45:00 | 241.482455 | 6.874494 | 0.947262 | 1.572521 | 1.66007 | 0.531987 | 5 | 45 | 3 | 0 | 239.470294 | 0.648678 | 0.943782 | 1.761187 | 1.545446 | -0.188666 | 1,660.069661 | 0.947256 | 0.320459 | 4.203273 | -1.00769 | -1.570103 |
2025-01-02 06:00:00 | 241.582064 | 7.218882 | 0.945534 | 1.648966 | 1.743952 | 0.567699 | 6 | 0 | 3 | 0 | 240.218901 | 0.479893 | 0.945534 | 1.572521 | 1.761187 | 0.076445 | 1,743.95241 | 0.945528 | 0.325523 | 4.503036 | -0.975399 | -0.135421 |
2025-01-02 06:15:00 | 238.159814 | 7.599721 | 0.943396 | 1.707498 | 1.809948 | 0.600301 | 6 | 15 | 3 | 0 | 240.208715 | 0.50559 | 0.943396 | 1.648966 | 1.572521 | 0.058533 | 1,809.948249 | 0.943391 | 0.331666 | 4.456259 | -0.699766 | -0.112469 |
2025-01-02 06:30:00 | 242.720037 | 8.668866 | 0.940859 | 1.979669 | 2.104108 | 0.712868 | 6 | 30 | 3 | 0 | 240.602648 | 0.678298 | 0.940859 | 1.707498 | 1.648966 | 0.27217 | 2,104.107513 | 0.940855 | 0.338797 | 5.455248 | -0.312657 | 1.741706 |
2025-01-02 06:45:00 | 237.004151 | 8.255167 | 0.937933 | 1.835074 | 1.956509 | 0.678551 | 6 | 45 | 3 | 0 | 239.913542 | 0.615521 | 0.937933 | 1.979669 | 1.707498 | -0.144595 | 1,956.508775 | 0.937928 | 0.346816 | 4.921046 | 0.152802 | -1.146544 |
2025-01-02 07:00:00 | 240.832972 | 8.453889 | 0.93463 | 1.902883 | 2.035975 | 0.724038 | 7 | 0 | 3 | 0 | 240.111432 | 0.671907 | 0.93463 | 1.835074 | 1.979669 | 0.067809 | 2,035.975124 | 0.934625 | 0.35562 | 5.330286 | 0.168214 | 0.358632 |
2025-01-02 07:15:00 | 243.850213 | 8.663885 | 0.930965 | 1.96684 | 2.11269 | 0.771364 | 7 | 15 | 3 | 0 | 240.489213 | 0.706433 | 0.930965 | 1.902883 | 1.835074 | 0.063957 | 2,112.690318 | 0.93096 | 0.365108 | 5.552012 | 0.353963 | 0.459612 |
2025-01-02 07:30:00 | 237.257723 | 9.784162 | 0.926953 | 2.151798 | 2.321368 | 0.870928 | 7 | 30 | 3 | 0 | 240.256002 | 0.931167 | 0.926953 | 1.96684 | 1.902883 | 0.184958 | 2,321.36809 | 0.926949 | 0.375177 | 5.902839 | 1.000391 | 1.852687 |
2025-01-02 07:45:00 | 237.836132 | 8.018168 | 0.922611 | 1.759428 | 1.90701 | 0.735594 | 7 | 45 | 3 | 0 | 240.292566 | 0.839766 | 0.922611 | 2.151798 | 1.96684 | -0.39237 | 1,907.009979 | 0.922606 | 0.38573 | 4.82961 | 0.870632 | -2.327698 |
2025-01-02 08:00:00 | 238.859557 | 8.709365 | 0.917959 | 1.909643 | 2.080315 | 0.825212 | 8 | 0 | 3 | 0 | 239.958512 | 0.841852 | 0.917959 | 1.759428 | 2.151798 | 0.150215 | 2,080.315099 | 0.917954 | 0.396674 | 5.225009 | 0.803294 | 1.343355 |
2025-01-02 08:15:00 | 237.307745 | 8.494431 | 0.913015 | 1.840451 | 2.015794 | 0.822294 | 8 | 15 | 3 | 0 | 239.541041 | 0.696486 | 0.913015 | 1.909643 | 1.759428 | -0.069192 | 2,015.794264 | 0.913011 | 0.407924 | 4.743729 | 1.022007 | -0.317594 |
2025-01-02 08:30:00 | 234.832207 | 8.462283 | 0.907802 | 1.803999 | 1.987217 | 0.833437 | 8 | 30 | 3 | 0 | 238.866055 | 0.563053 | 0.907802 | 1.840451 | 1.909643 | -0.036452 | 1,987.216531 | 0.907797 | 0.419397 | 4.537508 | 1.218181 | -0.342635 |
2025-01-02 08:45:00 | 237.655524 | 8.814846 | 0.902341 | 1.890311 | 2.094897 | 0.902948 | 8 | 45 | 3 | 0 | 238.815626 | 0.467561 | 0.902341 | 1.803999 | 1.840451 | 0.086313 | 2,094.896843 | 0.902337 | 0.431021 | 4.801574 | 1.439842 | 0.367021 |
2025-01-02 09:00:00 | 234.94646 | 7.668992 | 0.896656 | 1.615597 | 1.801803 | 0.797708 | 9 | 0 | 3 | 0 | 238.038268 | 0.557233 | 0.896656 | 1.890311 | 1.803999 | -0.274714 | 1,801.802613 | 0.896651 | 0.442725 | 3.798042 | 1.321549 | -1.945372 |
2025-01-02 09:15:00 | 237.540643 | 7.567902 | 0.890771 | 1.601326 | 1.797684 | 0.816961 | 9 | 15 | 3 | 0 | 238.091918 | 0.632535 | 0.890771 | 1.615597 | 1.890311 | -0.014272 | 1,797.684372 | 0.890766 | 0.454449 | 3.748185 | 1.086471 | -0.083554 |
2025-01-02 09:30:00 | 234.248766 | 7.90366 | 0.884712 | 1.637976 | 1.851422 | 0.863018 | 9 | 30 | 3 | 0 | 237.433497 | 0.656953 | 0.884712 | 1.601326 | 1.615597 | 0.03665 | 1,851.422497 | 0.884707 | 0.466136 | 3.518144 | 1.32206 | 0.425454 |
2025-01-02 09:45:00 | 238.655571 | 7.56721 | 0.878504 | 1.58654 | 1.805957 | 0.862769 | 9 | 45 | 3 | 0 | 236.914033 | 0.699774 | 0.878504 | 1.637976 | 1.601326 | -0.051435 | 1,805.956743 | 0.878499 | 0.477732 | 3.440564 | 1.34542 | -0.08895 |
2025-01-02 10:00:00 | 233.433493 | 7.721208 | 0.872174 | 1.571997 | 1.802389 | 0.881721 | 10 | 0 | 3 | 0 | 236.53161 | 0.484209 | 0.872174 | 1.58654 | 1.637976 | -0.014544 | 1,802.38864 | 0.872169 | 0.489193 | 3.146561 | 1.666778 | -0.199955 |
2025-01-02 10:15:00 | 233.778764 | 8.23576 | 0.865749 | 1.666866 | 1.925346 | 0.963594 | 10 | 15 | 3 | 0 | 236.125873 | 0.48537 | 0.865749 | 1.571997 | 1.58654 | 0.09487 | 1,925.345795 | 0.865745 | 0.500476 | 3.366199 | 2.015903 | 0.637986 |
2025-01-02 10:30:00 | 235.453869 | 7.09723 | 0.859257 | 1.435878 | 1.67107 | 0.854827 | 10 | 30 | 3 | 0 | 235.785304 | 0.531408 | 0.859257 | 1.666866 | 1.571997 | -0.230988 | 1,671.070234 | 0.859251 | 0.511542 | 2.630417 | 1.819129 | -1.55235 |
2025-01-02 10:45:00 | 230.752666 | 7.055877 | 0.852725 | 1.388374 | 1.628162 | 0.850488 | 10 | 45 | 3 | 0 | 235.129796 | 0.562465 | 0.852725 | 1.435878 | 1.666866 | -0.047504 | 1,628.162426 | 0.852719 | 0.522358 | 2.200362 | 1.770822 | -0.25968 |
2025-01-02 11:00:00 | 233.04311 | 7.157829 | 0.846181 | 1.4115 | 1.668083 | 0.888914 | 11 | 0 | 3 | 0 | 234.950887 | 0.54525 | 0.846181 | 1.388374 | 1.435878 | 0.023126 | 1,668.082797 | 0.846176 | 0.532893 | 2.149812 | 1.824166 | 0.248071 |
2025-01-02 11:15:00 | 234.565189 | 6.810105 | 0.839654 | 1.341274 | 1.597414 | 0.867591 | 11 | 15 | 3 | 0 | 234.641853 | 0.439548 | 0.839654 | 1.4115 | 1.388374 | -0.070226 | 1,597.413545 | 0.839648 | 0.543119 | 1.878997 | 1.868928 | -0.586164 |
2025-01-02 11:30:00 | 228.090295 | 5.812612 | 0.83317 | 1.104618 | 1.3258 | 0.733189 | 11 | 30 | 3 | 0 | 233.956237 | 0.677691 | 0.83317 | 1.341274 | 1.4115 | -0.236656 | 1,325.800292 | 0.833164 | 0.553012 | 0.7544 | 1.545335 | -1.336225 |
2025-01-02 11:45:00 | 231.023299 | 6.317323 | 0.826759 | 1.206613 | 1.459449 | 0.821021 | 11 | 45 | 3 | 0 | 233.304502 | 0.734334 | 0.826759 | 1.104618 | 1.341274 | 0.101996 | 1,459.448863 | 0.826754 | 0.562552 | 1.000246 | 1.538035 | 1.117582 |
2025-01-02 12:00:00 | 230.519766 | 6.781963 | 0.820448 | 1.282669 | 1.563377 | 0.893816 | 12 | 0 | 3 | 0 | 232.931602 | 0.694019 | 0.820448 | 1.206613 | 1.104618 | 0.076056 | 1,563.376576 | 0.820443 | 0.571718 | 1.081643 | 1.969684 | 1.003249 |
2025-01-02 12:15:00 | 230.909614 | 6.981781 | 0.814263 | 1.312723 | 1.61216 | 0.935853 | 12 | 15 | 3 | 0 | 232.157007 | 0.670366 | 0.814263 | 1.282669 | 1.206613 | 0.030053 | 1,612.160265 | 0.814258 | 0.580492 | 1.200359 | 2.3452 | 0.702167 |
2025-01-02 12:30:00 | 226.220837 | 5.50502 | 0.808231 | 1.006531 | 1.24535 | 0.733344 | 12 | 30 | 3 | 0 | 231.435741 | 0.764173 | 0.808231 | 1.312723 | 1.282669 | -0.306192 | 1,245.350263 | 0.808225 | 0.588861 | -0.074032 | 1.919009 | -1.538052 |
2025-01-02 12:45:00 | 225.408184 | 5.317376 | 0.802378 | 0.961714 | 1.19858 | 0.715332 | 12 | 45 | 3 | 0 | 230.598683 | 0.699048 | 0.802378 | 1.006531 | 1.312723 | -0.044817 | 1,198.580007 | 0.802371 | 0.596811 | -0.447726 | 1.613264 | 0.058279 |
2025-01-02 13:00:00 | 228.455693 | 5.72298 | 0.796729 | 1.041681 | 1.307447 | 0.790138 | 13 | 0 | 3 | 0 | 229.898865 | 0.700116 | 0.796729 | 0.961714 | 1.006531 | 0.079967 | 1,307.447403 | 0.796723 | 0.604332 | -0.319894 | 1.723346 | 1.011495 |
2025-01-02 13:15:00 | 227.379575 | 4.477881 | 0.791308 | 0.805693 | 1.018179 | 0.622532 | 13 | 15 | 3 | 0 | 229.561556 | 0.865016 | 0.791308 | 1.041681 | 0.961714 | -0.235988 | 1,018.178659 | 0.7913 | 0.611412 | -1.272869 | 1.316651 | -0.923793 |
2025-01-02 13:30:00 | 226.674151 | 5.0988 | 0.786138 | 0.908592 | 1.155766 | 0.714322 | 13 | 30 | 3 | 0 | 228.92466 | 0.826391 | 0.786138 | 0.805693 | 1.041681 | 0.102899 | 1,155.766232 | 0.786132 | 0.618045 | -1.040284 | 1.469362 | 1.34988 |
2025-01-02 13:45:00 | 226.27001 | 4.257496 | 0.781242 | 0.752605 | 0.963344 | 0.601346 | 13 | 45 | 3 | 0 | 228.095142 | 0.899094 | 0.781242 | 0.908592 | 0.805693 | -0.155988 | 963.343555 | 0.781234 | 0.624222 | -1.805648 | 1.207771 | -0.29528 |
2025-01-02 14:00:00 | 223.639951 | 5.613741 | 0.77664 | 0.975038 | 1.255457 | 0.790868 | 14 | 0 | 3 | 0 | 227.650108 | 0.896737 | 0.77664 | 0.752605 | 0.908592 | 0.222434 | 1,255.456736 | 0.776634 | 0.629939 | -1.13468 | 1.833557 | 2.424271 |
2025-01-02 14:15:00 | 224.908805 | 4.348541 | 0.772353 | 0.75538 | 0.978025 | 0.621236 | 14 | 15 | 3 | 0 | 227.038658 | 0.938705 | 0.772353 | 0.975038 | 0.752605 | -0.219658 | 978.025268 | 0.772345 | 0.635187 | -1.984458 | 1.514204 | -0.576154 |
2025-01-02 14:30:00 | 224.498531 | 5.364763 | 0.768398 | 0.925444 | 1.204382 | 0.770771 | 14 | 30 | 3 | 0 | 226.436535 | 0.806295 | 0.768398 | 0.75538 | 0.975038 | 0.170063 | 1,204.381502 | 0.768391 | 0.639967 | -1.380948 | 1.928937 | 1.893634 |
2025-01-02 14:45:00 | 221.977839 | 4.902223 | 0.764792 | 0.832235 | 1.088185 | 0.701093 | 14 | 45 | 3 | 0 | 225.543357 | 0.539421 | 0.764792 | 0.925444 | 0.75538 | -0.093209 | 1,088.184895 | 0.764785 | 0.644271 | -1.961688 | 2.027728 | -0.373149 |
2025-01-02 15:00:00 | 226.660481 | 3.832223 | 0.761551 | 0.661494 | 0.868613 | 0.562953 | 15 | 0 | 3 | 0 | 225.587322 | 0.636946 | 0.761551 | 0.832235 | 0.925444 | -0.170741 | 868.613454 | 0.761542 | 0.648097 | -2.410256 | 1.407785 | -0.898113 |
2025-01-02 15:15:00 | 223.429268 | 3.432937 | 0.758689 | 0.581929 | 0.767019 | 0.499677 | 15 | 15 | 3 | 0 | 225.38943 | 0.763773 | 0.758689 | 0.661494 | 0.832235 | -0.079565 | 767.018675 | 0.758679 | 0.651445 | -2.979906 | 1.037369 | -0.087267 |
2025-01-02 15:30:00 | 219.68386 | 3.690095 | 0.756218 | 0.613031 | 0.810654 | 0.530427 | 15 | 30 | 3 | 0 | 224.512247 | 0.732672 | 0.756218 | 0.581929 | 0.661494 | 0.031103 | 810.654374 | 0.756209 | 0.654312 | -3.183934 | 1.121795 | 0.674825 |
2025-01-02 15:45:00 | 222.998411 | 3.557691 | 0.754148 | 0.598311 | 0.793359 | 0.521002 | 15 | 45 | 3 | 0 | 224.074131 | 0.791447 | 0.754148 | 0.613031 | 0.581929 | -0.014721 | 793.359365 | 0.754139 | 0.656696 | -3.192786 | 1.036867 | 0.475907 |
2025-01-02 16:00:00 | 219.390383 | 3.612185 | 0.752489 | 0.596332 | 0.792479 | 0.52193 | 16 | 0 | 3 | 0 | 223.345754 | 0.787268 | 0.752489 | 0.598311 | 0.613031 | -0.001979 | 792.478738 | 0.75248 | 0.658596 | -3.368312 | 1.146992 | 0.577426 |
2025-01-02 16:15:00 | 222.605442 | 2.886622 | 0.751248 | 0.482735 | 0.642578 | 0.424114 | 16 | 15 | 3 | 0 | 222.979297 | 0.899358 | 0.751248 | 0.596332 | 0.598311 | -0.113597 | 642.57781 | 0.751236 | 0.66001 | -3.726855 | 0.714951 | -0.063818 |
2025-01-02 16:30:00 | 223.078396 | 3.49126 | 0.750429 | 0.584453 | 0.778825 | 0.514765 | 16 | 30 | 3 | 0 | 222.923141 | 0.746144 | 0.750429 | 0.482735 | 0.596332 | 0.101718 | 778.824762 | 0.75042 | 0.660942 | -3.371693 | 0.921302 | 1.165121 |
2025-01-02 16:45:00 | 218.889334 | 3.101955 | 0.750037 | 0.509264 | 0.678985 | 0.449078 | 16 | 45 | 3 | 0 | 222.321194 | 0.768868 | 0.750037 | 0.584453 | 0.482735 | -0.075189 | 678.984818 | 0.750026 | 0.661386 | -3.872739 | 0.889549 | 0.011956 |
2025-01-02 17:00:00 | 222.267494 | 2.659017 | 0.750073 | 0.443303 | 0.591013 | 0.390869 | 17 | 0 | 3 | 0 | 222.098091 | 0.612135 | 0.750037 | 0.509264 | 0.584453 | -0.065961 | 591.013005 | 0.75006 | 0.661344 | -3.988172 | 0.586538 | -0.323076 |
2025-01-02 17:15:00 | 221.017709 | 2.342413 | 0.750537 | 0.388564 | 0.517715 | 0.342121 | 17 | 15 | 3 | 0 | 222.002078 | 0.491708 | 0.750037 | 0.443303 | 0.509264 | -0.054739 | 517.714831 | 0.750522 | 0.660816 | -4.315311 | 0.366369 | -0.51707 |
2025-01-02 17:30:00 | 221.729672 | 2.485066 | 0.751426 | 0.414046 | 0.551013 | 0.363568 | 17 | 30 | 3 | 0 | 221.508997 | 0.502142 | 0.750037 | 0.388564 | 0.443303 | 0.025482 | 551.012894 | 0.751413 | 0.659805 | -4.260251 | 0.31136 | 0.065321 |
2025-01-02 17:45:00 | 223.814997 | 2.058506 | 0.752738 | 0.346805 | 0.460725 | 0.303304 | 17 | 45 | 3 | 0 | 221.54757 | 0.589306 | 0.750037 | 0.414046 | 0.388564 | -0.067241 | 460.724602 | 0.752722 | 0.658306 | -4.450676 | 0.027142 | -0.452009 |
2025-01-02 18:00:00 | 219.509224 | 2.396472 | 0.754466 | 0.396885 | 0.526048 | 0.345265 | 18 | 0 | 3 | 0 | 221.530106 | 0.559405 | 0.750037 | 0.346805 | 0.414046 | 0.05008 | 526.047634 | 0.754452 | 0.656326 | -4.415029 | 0.180822 | 0.32833 |
2025-01-02 18:15:00 | 218.513938 | 2.321541 | 0.756604 | 0.383817 | 0.507289 | 0.331703 | 18 | 15 | 3 | 0 | 221.081659 | 0.5233 | 0.750037 | 0.396885 | 0.346805 | -0.013068 | 507.289019 | 0.756589 | 0.653861 | -4.52539 | 0.176219 | -0.15668 |
2025-01-02 18:30:00 | 218.306523 | 2.332897 | 0.759141 | 0.38662 | 0.509287 | 0.331508 | 18 | 30 | 3 | 0 | 220.973273 | 0.433903 | 0.750037 | 0.383817 | 0.396885 | 0.002804 | 509.286568 | 0.759126 | 0.650913 | -4.486325 | 0.167726 | -0.231535 |
2025-01-02 18:45:00 | 218.560527 | 3.020367 | 0.762067 | 0.503066 | 0.660133 | 0.427435 | 18 | 45 | 3 | 0 | 220.568781 | 0.44537 | 0.750037 | 0.38662 | 0.383817 | 0.116446 | 660.133041 | 0.762056 | 0.647488 | -4.031857 | 0.441035 | 0.649702 |
2025-01-02 19:00:00 | 220.186538 | 2.018485 | 0.76537 | 0.340164 | 0.444443 | 0.286039 | 19 | 0 | 3 | 0 | 220.279596 | 0.361141 | 0.750037 | 0.503066 | 0.38662 | -0.162902 | 444.443286 | 0.765353 | 0.643576 | -4.539702 | 0.040715 | -1.52514 |
2025-01-02 19:15:00 | 221.213003 | 2.546952 | 0.769035 | 0.433289 | 0.563419 | 0.360141 | 19 | 15 | 3 | 0 | 220.511962 | 0.289373 | 0.750073 | 0.340164 | 0.503066 | 0.093125 | 563.418891 | 0.769022 | 0.639195 | -4.105078 | 0.067479 | 0.082324 |
2025-01-02 19:30:00 | 221.314586 | 2.132047 | 0.773047 | 0.364765 | 0.471853 | 0.299319 | 19 | 30 | 3 | 0 | 220.416672 | 0.288622 | 0.750537 | 0.433289 | 0.340164 | -0.068524 | 471.853181 | 0.773031 | 0.634335 | -4.387732 | -0.139002 | -1.036268 |
2025-01-02 19:45:00 | 222.685639 | 1.883505 | 0.777389 | 0.32606 | 0.419429 | 0.26383 | 19 | 45 | 3 | 0 | 220.583465 | 0.326671 | 0.751426 | 0.364765 | 0.433289 | -0.038705 | 419.429455 | 0.77737 | 0.629005 | -4.407692 | -0.424594 | -0.834798 |
2025-01-02 20:00:00 | 221.36575 | 1.941256 | 0.782041 | 0.336065 | 0.429728 | 0.267818 | 20 | 0 | 3 | 0 | 220.547072 | 0.341012 | 0.752738 | 0.32606 | 0.364765 | 0.010005 | 429.727519 | 0.782023 | 0.623212 | -4.42899 | -0.527771 | -0.471496 |
2025-01-02 20:15:00 | 224.592372 | 1.982473 | 0.786985 | 0.350404 | 0.445248 | 0.274706 | 20 | 15 | 3 | 0 | 220.62481 | 0.346929 | 0.754466 | 0.336065 | 0.32606 | 0.014339 | 445.248409 | 0.786967 | 0.616958 | -4.222277 | -0.661551 | -0.442534 |
2025-01-02 20:30:00 | 221.537153 | 2.175617 | 0.792198 | 0.381824 | 0.48198 | 0.294135 | 20 | 30 | 3 | 0 | 220.827603 | 0.344124 | 0.756604 | 0.350404 | 0.336065 | 0.03142 | 481.980075 | 0.792182 | 0.610251 | -4.150143 | -0.580571 | -0.308785 |
2025-01-02 20:45:00 | 227.92194 | 1.592613 | 0.797659 | 0.289543 | 0.362992 | 0.218923 | 20 | 45 | 3 | 0 | 221.768403 | 0.397014 | 0.759141 | 0.381824 | 0.350404 | -0.09228 | 362.991545 | 0.797637 | 0.603092 | -4.130071 | -1.043302 | -1.160941 |
2025-01-02 21:00:00 | 224.180267 | 1.388681 | 0.803344 | 0.250093 | 0.311315 | 0.185393 | 21 | 0 | 3 | 0 | 222.355777 | 0.459398 | 0.762067 | 0.289543 | 0.381824 | -0.039451 | 311.314859 | 0.803318 | 0.595496 | -4.339614 | -1.281564 | -0.732278 |
2025-01-02 21:15:00 | 221.692227 | 2.509904 | 0.809229 | 0.450276 | 0.556426 | 0.326897 | 21 | 15 | 3 | 0 | 222.668947 | 0.359296 | 0.76537 | 0.250093 | 0.289543 | 0.200183 | 556.426188 | 0.809214 | 0.587483 | -3.706195 | -0.887976 | 0.83391 |
2025-01-02 21:30:00 | 221.770601 | 2.705285 | 0.815288 | 0.489134 | 0.599953 | 0.347406 | 21 | 30 | 3 | 0 | 222.827354 | 0.420079 | 0.769035 | 0.450276 | 0.250093 | 0.038858 | 599.952705 | 0.815274 | 0.579046 | -3.444256 | -0.694216 | -0.096176 |
2025-01-02 21:45:00 | 225.409243 | 2.714258 | 0.821496 | 0.502607 | 0.611819 | 0.348868 | 21 | 45 | 3 | 0 | 223.246978 | 0.443181 | 0.773047 | 0.489134 | 0.450276 | 0.013473 | 611.818923 | 0.821483 | 0.570205 | -3.053911 | -0.769941 | -0.279056 |
2025-01-02 22:00:00 | 224.553074 | 2.515528 | 0.827826 | 0.467614 | 0.56487 | 0.316883 | 22 | 0 | 3 | 0 | 223.570827 | 0.462198 | 0.777389 | 0.502607 | 0.489134 | -0.034993 | 564.869564 | 0.827811 | 0.560975 | -3.097775 | -0.939816 | -0.614527 |
2025-01-02 22:15:00 | 227.005114 | 2.929227 | 0.834251 | 0.554735 | 0.664949 | 0.366643 | 22 | 15 | 3 | 0 | 224.002774 | 0.512995 | 0.782041 | 0.467614 | 0.502607 | 0.087121 | 664.94944 | 0.834238 | 0.551377 | -2.621711 | -0.992406 | 0.317532 |
2025-01-02 22:30:00 | 227.119641 | 3.020411 | 0.840743 | 0.576746 | 0.685995 | 0.371421 | 22 | 30 | 3 | 0 | 224.578163 | 0.553772 | 0.786985 | 0.554735 | 0.467614 | 0.022011 | 685.994722 | 0.840731 | 0.541426 | -2.433778 | -1.000878 | -0.039898 |
2025-01-02 22:45:00 | 226.639948 | 3.185598 | 0.847275 | 0.611719 | 0.721984 | 0.383484 | 22 | 45 | 3 | 0 | 224.782921 | 0.593501 | 0.792198 | 0.576746 | 0.554735 | 0.034974 | 721.983811 | 0.847264 | 0.531146 | -2.194681 | -1.015362 | 0.113256 |
2025-01-02 23:00:00 | 225.718222 | 2.499556 | 0.853819 | 0.481721 | 0.564195 | 0.293703 | 23 | 0 | 3 | 0 | 225.201028 | 0.58419 | 0.797659 | 0.611719 | 0.576746 | -0.129998 | 564.195295 | 0.853804 | 0.520561 | -2.545726 | -1.361602 | -1.113839 |
2025-01-02 23:15:00 | 225.019402 | 2.52726 | 0.860346 | 0.489264 | 0.568683 | 0.289863 | 23 | 15 | 3 | 0 | 224.910774 | 0.488777 | 0.803344 | 0.481721 | 0.611719 | 0.007543 | 568.682529 | 0.860331 | 0.509701 | -2.508329 | -1.60689 | -0.404492 |
2025-01-02 23:30:00 | 227.801708 | 3.036101 | 0.86683 | 0.599524 | 0.691629 | 0.344849 | 23 | 30 | 3 | 0 | 225.272918 | 0.25885 | 0.809229 | 0.489264 | 0.481721 | 0.11026 | 691.628968 | 0.866817 | 0.498597 | -2.023327 | -1.575301 | -0.110873 |
2025-01-02 23:45:00 | 231.058766 | 3.383921 | 0.873241 | 0.682773 | 0.781885 | 0.381004 | 23 | 45 | 3 | 0 | 226.209572 | 0.306563 | 0.815288 | 0.599524 | 0.489264 | 0.083249 | 781.884578 | 0.873229 | 0.487283 | -1.472438 | -1.514471 | -0.19102 |
2025-01-03 00:00:00 | 230.428187 | 3.440763 | 0.879552 | 0.697352 | 0.792849 | 0.37724 | 0 | 0 | 4 | 0 | 227.075331 | 0.352337 | 0.821496 | 0.682773 | 0.599524 | 0.014578 | 792.84874 | 0.879541 | 0.475797 | -1.243933 | -1.494118 | -0.591689 |
2025-01-03 00:15:00 | 228.162554 | 2.798648 | 0.885737 | 0.565584 | 0.638547 | 0.296405 | 0 | 15 | 4 | 0 | 227.350662 | 0.347702 | 0.827826 | 0.697352 | 0.682773 | -0.131767 | 638.546587 | 0.885723 | 0.46418 | -1.605926 | -1.786542 | -1.679669 |
2025-01-03 00:30:00 | 231.651624 | 4.778517 | 0.891769 | 0.987145 | 1.106951 | 0.500886 | 0 | 30 | 4 | 0 | 228.060517 | 0.650165 | 0.834251 | 0.565584 | 0.697352 | 0.42156 | 1,106.951194 | 0.891761 | 0.452487 | -0.077114 | -1.521002 | 2.769167 |
2025-01-03 00:45:00 | 232.721538 | 3.96596 | 0.897622 | 0.828473 | 0.922964 | 0.406812 | 0 | 45 | 4 | 0 | 228.632159 | 0.690673 | 0.840743 | 0.987145 | 0.565584 | -0.158672 | 922.964326 | 0.897612 | 0.440762 | -0.361486 | -1.501778 | -1.100374 |
2025-01-03 01:00:00 | 230.820476 | 4.378489 | 0.903271 | 0.912886 | 1.010645 | 0.433638 | 1 | 0 | 4 | 0 | 229.002242 | 0.766845 | 0.847275 | 0.828473 | 0.987145 | 0.084413 | 1,010.644895 | 0.903262 | 0.429066 | 0.09582 | -1.550176 | 0.621639 |
2025-01-03 01:15:00 | 233.521845 | 5.106596 | 0.908692 | 1.083617 | 1.192502 | 0.49783 | 1 | 15 | 4 | 0 | 229.690432 | 0.930468 | 0.853819 | 0.912886 | 0.828473 | 0.170731 | 1,192.501729 | 0.908684 | 0.417464 | 0.757293 | -1.487895 | 1.581551 |
2025-01-03 01:30:00 | 233.943252 | 3.506228 | 0.913862 | 0.749603 | 0.820258 | 0.333046 | 1 | 30 | 4 | 0 | 230.512935 | 0.850187 | 0.860346 | 1.083617 | 0.912886 | -0.334014 | 820.258487 | 0.913851 | 0.406021 | -0.034382 | -1.907182 | -2.14537 |
2025-01-03 01:45:00 | 232.136946 | 4.618636 | 0.918758 | 0.985052 | 1.072156 | 0.42331 | 1 | 45 | 4 | 0 | 231.22469 | 0.786623 | 0.86683 | 0.749603 | 1.083617 | 0.235449 | 1,072.156173 | 0.918749 | 0.394818 | 0.681244 | -1.992878 | 1.580418 |
2025-01-03 02:00:00 | 235.715575 | 4.877231 | 0.92336 | 1.061531 | 1.149639 | 0.441388 | 2 | 0 | 4 | 0 | 232.016076 | 0.777 | 0.873241 | 0.985052 | 0.749603 | 0.076479 | 1,149.639336 | 0.923352 | 0.383933 | 1.031442 | -1.920465 | 0.552577 |
2025-01-03 02:15:00 | 236.677271 | 5.098638 | 0.927647 | 1.119421 | 1.206732 | 0.450663 | 2 | 15 | 4 | 0 | 232.577927 | 0.793989 | 0.879552 | 1.061531 | 0.985052 | 0.057891 | 1,206.731711 | 0.92764 | 0.373454 | 1.476678 | -1.826266 | 0.426106 |
Subsets and Splits
No community queries yet
The top public SQL queries from the community will appear here once available.